Location: Ebersheim
(48.3033°N, 7.4991°E)
Time: 06:40:56
(UTC+00:00)

STARLINK-1068 - Pass Details

Date: 27 February 2020
Orbit: 549 x 550 km, 53.0° (Epoch: 10 April)

Event Time Altitude Azimuth Distance (km) Brightness Sun altitude
Rises 19:15:49 0° 275° (W) 2,719 8.7 -21.6°
Reaches altitude 10° 19:18:08 10° 282° (WNW) 1,826 7.4 -22.0°
Maximum altitude 19:22:06 43° 355° (N) 777 4.4 -22.6°
Enters shadow 19:22:36 41° 16° (NNE) 803 4.3 -22.7°
